COSMOS 2251 DEB, 34050

Orbit data source: Space-Track

COSMOS 2251 DEB, 34050 is space debris in LEO originally from a launch on Wed, 16 Jun 1993 UTC launched from the Plesetsk Missile And Space Complex (PKMTR). The debris from Iridium 33, an American commercial communications satellite, has been tracked extensively since its accidental collision with the defunct Russian satellite Cosmos 2251 in 2009. This event, occurring at high speed in low Earth orbit (LEO), generated thousands of pieces of space debris, significantly increasing the risk of further collisions. The Iridium 33 debris cloud has impacted space traffic management and orbital debris mitigation strategies, making it a subject of ongoing study in space situational awareness.

Loading next visibility...
Identifier
34050, 1993-036JM
Orbit
LEO
Country
Flag of CISCIS
Related business
Manufacturer
Unknown
Mission
Spacecraft
Bus & Motor
Unknown
Mass
Unknown
Launch date (UTC)
1993-06-16 (33 years ago)
Launch vehicle
Unknown
Launch site
Plesetsk Missile And Space Complex (PKMTR)
Object type
Payload
Rocket body
Debris
Shape & HBR
Unknown shape, 0.1 m
Radar Cross Section
Small (<0.1 m²)

Expand to show TLE details & history
Last TLE update: 21 hours ago

TLE from 21 hours ago
0 COSMOS 2251 DEB
1 34050U 93036JM  26035.09046906  .00001232  00000-0  74785-3 0  9995
2 34050  74.0873 278.5217 0216282 330.0241 181.3049 13.96393362861768
Epoch: 2026-02-04T02:10Z
TLE epoch observation values (Epoch: 2026-02-04T02:10:16.526Z)
Latitude
27.57378°
Longitude
-76.82704°
Altitude
1,066.88 km
Speed
7.242 km/s
True Right ascension
06h 00m 00s
True Declination
27° 26' 20"
Sunlit
Object was in full shadow at epoch
Visualization orbit readout
Latitude
Unknown
Longitude
Unknown
Altitude
Unknown
Speed
Unknown
Apparent Right ascension
Unknown
Apparent Declination
Unknown
Sunlit
N/A
Visualization observer readout
Local Sidereal Time
01:06:31
Azimuth
Unknown
Elevation
Unknown
Doppler factor
Unknown
Orbital elements
Apogee altitude
1,061.472 km
Perigee altitude
746.474 km
Semi-major axis
7,282.11 km
Eccentricity
0.02163
Inclination
74.0873°
RAAN
278.5217°
Arg. of periapsis
330.0241°
True anomaly
181.24995°
Mean anomaly
181.3049°
Eccentric anomaly
181.27728°
Mean motion
3.49267 °/min
Orbital period
103.07 mins
BSTAR
0.00074785
Loading maneuver chart data...
Computing Atmospheric mass density...

Documentation

Showing up to 5 results
|